Location: Cherry Springs State Park
(41.6616°N, 77.8240°W)
Time: 10:06:31
(UTC-05:00)

Amateur Radio Satellites - All Passes

Search period start: 11 February 2016 09:36
Search period end: 12 February 2016 09:36
Location: Cherry Springs State Park, 41.6616°N, 77.8240°W

Satellite Date Start Highest point End Downlink Frequencies (MHz)
Time Altitude Azimuth
HO-68 11 Feb 09:36:49 09:43:37 46° 295° (WNW) 09:50:22 435.675
UNISAT 6 11 Feb 09:38:11 09:42:27 66° 75° (ENE) 09:46:42 437.425
CANX-2 11 Feb 09:59:21 10:01:00 12° 298° (WNW) 10:02:39 2200.000
POPSAT HIP 1 11 Feb 10:03:36 10:07:16 29° 69° (ENE) 10:10:56 437.405
ZACube-1 11 Feb 10:06:24 10:10:36 64° 285° (WNW) 10:14:51 437.345
NANOSAT C BR1 11 Feb 10:07:15 10:10:59 31° 70° (ENE) 10:14:43 145.865
DUCHIFAT 1 11 Feb 10:08:01 10:11:42 30° 70° (ENE) 10:15:25 145.980
HUMSAT D 11 Feb 10:12:10 10:16:08 41° 99° (E) 10:20:08 437.325/437.525
FUNcube-1 11 Feb 10:14:43 10:18:50 54° 286° (WNW) 10:23:02 145.935
QB50P1 11 Feb 10:15:45 10:19:43 40° 71° (ENE) 10:23:40 145.935-145.965
ANTELSAT 11 Feb 10:23:32 10:27:34 38° 262° (W) 10:31:34 437.575/2403.000
50 SAT 11 Feb 10:24:37 10:25:45 11° 91° (E) 10:26:54 437.505
VELOX 1 11 Feb 10:26:10 10:26:56 10° 89° (E) 10:27:43 145.980
DELFI C3 11 Feb 10:28:06 10:32:01 49° 287° (WNW) 10:35:56 145.870
PCSat 11 Feb 10:28:57 10:34:17 65° 116° (ESE) 10:39:41 145.827
TIGRISAT 11 Feb 10:30:00 10:33:56 34° 262° (W) 10:37:51 435.000
AIST 1 11 Feb 10:36:35 10:40:59 88° 104° (ESE) 10:45:26
RS-15 11 Feb 10:40:34 10:50:53 47° 109° (ESE) 11:01:41 29.354- 29.394
AISAT 11 Feb 10:41:15 10:44:09 17° 93° (E) 10:47:00 437.250
UKube-1 11 Feb 10:45:39 10:48:19 16° 92° (E) 10:50:59 .
Oscar 11 11 Feb 10:46:12 10:49:25 20° 294° (WNW) 10:52:37 145.826/435.025
UWE-3 11 Feb 10:53:30 10:55:58 15° 295° (WNW) 10:58:27 435.000/436.395/437.385
CUBEBUG 1 11 Feb 10:56:09 10:59:21 20° 93° (E) 11:02:32 437.445
CUBEBUG 2 11 Feb 10:57:28 10:58:22 11° 298° (WNW) 10:59:15 437.445
DX 1 11 Feb 10:59:40 11:03:22 27° 96° (E) 11:07:02 434.975-435.025
BUGSAT 1 11 Feb 11:02:26 11:06:36 66° 75° (ENE) 11:10:44 437.445
GONETS M04 11 Feb 11:07:11 11:13:08 20° 298° (WNW) 11:19:08
ESTCUBE 1 11 Feb 11:08:21 11:12:34 37° 97° (E) 11:16:46 437.505/2401.250
POLYITAN 1 11 Feb 11:08:52 11:12:58 49° 260° (W) 11:17:05 437.675
AO-85 11 Feb 11:09:08 11:14:11 39° 311° (NW) 11:19:20 145.980
QB50P2 11 Feb 11:09:28 11:13:33 47° 261° (W) 11:17:39 145.880/145.840
Oscar 19 11 Feb 11:13:23 11:15:28 12° 58° (ENE) 11:17:34 437.125/150
Cosmos 2499 11 Feb 11:18:15 11:26:03 35° 290° (WNW) 11:34:00 435.465 / 435.565
UNISAT 6 11 Feb 11:18:40 11:19:36 11° 270° (W) 11:20:32 437.425
SO-50 11 Feb 11:21:17 11:22:15 11° 30° (NNE) 11:23:14 436.795
POPSAT HIP 1 11 Feb 11:39:39 11:43:03 24° 265° (W) 11:46:30 437.405
NANOSAT C BR1 11 Feb 11:43:27 11:46:45 22° 266° (W) 11:50:04 145.865
DUCHIFAT 1 11 Feb 11:44:06 11:47:26 22° 265° (W) 11:50:47 145.980
HUMSAT D 11 Feb 11:48:43 11:51:28 17° 294° (WNW) 11:54:15 437.325/437.525
QB50P1 11 Feb 11:52:51 11:55:39 17° 267° (W) 11:58:29 145.935-145.965
50 SAT 11 Feb 11:56:21 12:00:03 50° 287° (WNW) 12:03:45 437.505
Gurwin Techsat 1B 11 Feb 11:57:13 11:59:21 12° 58° (ENE) 12:01:31 435.225
YUBILEINY 11 Feb 11:59:11 12:00:28 10° 52° (NE) 12:01:45 435.215
VELOX 1 11 Feb 11:59:30 12:03:54 71° 286° (WNW) 12:08:17 145.980
CUSAT 1 11 Feb 12:03:04 12:08:24 37° 70° (ENE) 12:12:30 437.405
PCSat 11 Feb 12:14:00 12:18:10 22° 315° (NW) 12:22:20 145.827
AISAT 11 Feb 12:16:39 12:20:51 44° 289° (WNW) 12:25:01 437.250
UKube-1 11 Feb 12:20:29 12:24:37 45° 289° (WNW) 12:28:43 .
ITAMSAT 1 11 Feb 12:26:00 12:27:53 12° 57° (ENE) 12:29:45 435.822/435.867
SPROUT 11 Feb 12:26:47 12:31:03 71° 103° (ESE) 12:35:17 437.525
AO-7 11 Feb 12:27:57 12:30:17 11° 41° (NE) 12:32:38 29.400- 29.500
JAS-2 11 Feb 12:29:09 12:36:27 52° 70° (ENE) 12:43:07 435.910
TISAT 1 11 Feb 12:30:00 12:33:34 26° 96° (E) 12:37:05 437.305
CUBEBUG 1 11 Feb 12:31:45 12:35:46 37° 290° (WNW) 12:39:45 437.445
DX 1 11 Feb 12:35:48 12:39:30 27° 292° (WNW) 12:43:10 434.975-435.025
BUGSAT 1 11 Feb 12:41:44 12:42:23 10° 270° (W) 12:43:02 437.445
ESTCUBE 1 11 Feb 12:45:39 12:49:09 22° 294° (WNW) 12:52:39 437.505/2401.250
Oscar 19 11 Feb 12:48:50 12:54:01 90° 235° (SW) 12:59:14 437.125/150
DANDE 11 Feb 12:49:20 12:56:13 59° 75° (ENE) 13:01:24 436.750
RS-15 11 Feb 12:52:08 13:03:05 56° 313° (NW) 13:14:42 29.354- 29.394
AO-85 11 Feb 12:55:25 12:56:17 10° 333° (NNW) 12:57:09 145.980
SO-50 11 Feb 12:59:16 13:03:58 49° 51° (NE) 13:08:30 436.795
SWISSCUBE 11 Feb 13:17:26 13:20:48 19° 93° (E) 13:24:09 437.505
Gurwin Techsat 1B 11 Feb 13:33:11 13:38:30 88° 76° (ENE) 13:43:51 435.225
CUSAT 1 11 Feb 13:46:02 13:50:13 22° 277° (W) 13:53:38 437.405
YUBILEINY 11 Feb 13:51:01 13:59:41 55° 76° (ENE) 14:08:15 435.215
ITUPSAT 1 11 Feb 13:54:19 13:58:50 39° 98° (E) 14:03:19 437.325
Cosmos 2491 11 Feb 13:58:30 14:05:41 30° 83° (E) 14:12:53 435.465 / 435.565
ITAMSAT 1 11 Feb 14:01:20 14:06:32 86° 76° (ENE) 14:11:46 435.822/435.867
BEESAT 11 Feb 14:01:34 14:06:12 47° 100° (E) 14:10:49 436.000
SPROUT 11 Feb 14:05:08 14:06:27 11° 298° (WNW) 14:07:45 437.525
TISAT 1 11 Feb 14:05:42 14:09:09 25° 292° (WNW) 14:12:35 437.305
AO-7 11 Feb 14:13:07 14:21:02 49° 63° (ENE) 14:28:56 29.400- 29.500
JAS-2 11 Feb 14:14:56 14:21:35 32° 265° (W) 14:27:47 435.910
Cosmos 2504 11 Feb 14:21:34 14:27:20 19° 61° (ENE) 14:32:52 435.465 / 435.565
Oscar 19 11 Feb 14:33:18 14:34:02 10° 272° (W) 14:34:45 437.125/150
DANDE 11 Feb 14:33:36 14:38:14 20° 280° (W) 14:42:07 436.750
ISS 11 Feb 14:34:33 14:37:12 23° 135° (SE) 14:39:52 145.825
SO-50 11 Feb 14:40:35 14:44:06 21° 250° (WSW) 14:47:31 436.795
STARS 11 Feb 14:53:48 14:55:12 11° 90° (E) 14:56:35 437.465
SWISSCUBE 11 Feb 14:54:14 14:58:50 47° 289° (WNW) 15:03:26 437.505
RS-15 11 Feb 15:09:57 15:19:02 25° 345° (NNW) 15:28:28 29.354- 29.394
KKS-1 11 Feb 15:13:20 15:17:25 35° 98° (E) 15:21:28 437.445
Gurwin Techsat 1B 11 Feb 15:17:37 15:19:08 11° 272° (W) 15:20:39 435.225
M-CUBED/EXP-1 PRIME 11 Feb 15:17:53 15:21:30 85° 72° (ENE) 15:24:55 437.505
MOZHAYETS 4 11 Feb 15:20:15 15:23:26 18° 92° (E) 15:26:37
AUBIESAT-1 11 Feb 15:26:04 15:29:40 87° 72° (ENE) 15:33:06 437.475
ITUPSAT 1 11 Feb 15:32:38 15:36:27 24° 295° (WNW) 15:40:15 437.325
HORYU 2 11 Feb 15:38:27 15:42:50 69° 74° (ENE) 15:47:13 437.375
BEESAT 11 Feb 15:40:12 15:43:39 20° 296° (WNW) 15:47:05 436.000
ITAMSAT 1 11 Feb 15:45:14 15:46:39 11° 272° (W) 15:48:06 435.822/435.867
YUBILEINY 11 Feb 15:48:28 15:56:02 33° 276° (W) 16:03:32 435.215
Cosmos 2491 11 Feb 15:53:25 16:01:57 59° 283° (WNW) 16:10:34 435.465 / 435.565
CUTE-I 11 Feb 15:56:49 15:57:57 11° 56° (NE) 15:59:04 437.470
AO-7 11 Feb 16:06:11 16:13:52 40° 261° (W) 16:21:37 29.400- 29.500
Cubesat XI-IV 11 Feb 16:09:19 16:12:03 14° 59° (ENE) 16:14:47 437.490
ISS 11 Feb 16:10:23 16:13:30 42° 331° (NNW) 16:16:37 145.825
Cosmos 2504 11 Feb 16:13:25 16:22:06 89° 93° (E) 16:30:06 435.465 / 435.565
BEESAT 3 11 Feb 16:14:19 16:17:50 31° 115° (ESE) 16:21:22 437.485
STARS 11 Feb 16:27:39 16:31:59 65° 287° (WNW) 16:36:19 437.465
BEESAT 2 11 Feb 16:41:36 16:45:21 39° 117° (ESE) 16:49:07 435.950
KKS-1 11 Feb 16:50:22 16:53:46 22° 294° (WNW) 16:57:09 437.445
MOZHAYETS 4 11 Feb 16:56:24 17:00:50 46° 288° (WNW) 17:05:16
GOMX 1 11 Feb 16:59:38 17:01:01 11° 60° (ENE) 17:02:23 467.674
O/OREOS (USA 219) 11 Feb 17:16:52 17:21:25 59° 65° (ENE) 17:25:57 437.305
HORYU 2 11 Feb 17:18:43 17:19:51 11° 270° (W) 17:21:00 437.375
RS-15 11 Feb 17:27:19 17:37:02 27° 21° (NNE) 17:46:58 29.354- 29.394
CUTE-I 11 Feb 17:31:45 17:37:03 75° 74° (ENE) 17:42:24 437.470
PCSat 11 Feb 17:35:34 17:37:17 11° 35° (NE) 17:39:01 145.827
BRITE-PL 11 Feb 17:36:48 17:42:12 47° 71° (ENE) 17:47:28 437.365/2234.400
CUBESAT XI-V 11 Feb 17:42:01 17:46:39 56° 100° (E) 17:51:14 437.345
Cubesat XI-IV 11 Feb 17:46:04 17:51:24 82° 256° (WSW) 17:56:47 437.490
LilacSat-2 11 Feb 17:48:02 17:51:51 85° 257° (WSW) 17:55:41 437.200
ISS 11 Feb 17:48:30 17:50:35 16° 351° (N) 17:52:39 145.825
BEESAT 3 11 Feb 17:52:14 17:55:35 25° 312° (NW) 17:58:58 437.485
Cosmos 2491 11 Feb 17:58:37 18:01:00 11° 306° (NW) 18:03:23 435.465 / 435.565
AO-85 11 Feb 18:00:42 18:05:24 33° 46° (NE) 18:09:47 145.980
DOVE 4 11 Feb 18:06:12 18:10:09 24° 67° (ENE) 18:13:57 437.250
Cosmos 2504 11 Feb 18:08:58 18:14:06 18° 284° (WNW) 18:19:04 435.465 / 435.565
HO-68 11 Feb 18:18:45 18:24:37 28° 59° (ENE) 18:30:30 435.675
BEESAT 2 11 Feb 18:20:13 18:23:23 22° 314° (NW) 18:26:33 435.950
CUTE 1.7 + AOD 2 11 Feb 18:30:52 18:33:11 15° 64° (ENE) 18:35:30 437.475
GOMX 1 11 Feb 18:32:56 18:38:20 80° 76° (ENE) 18:43:29 467.674
SEEDS 11 Feb 18:34:38 18:36:13 12° 62° (ENE) 18:37:48 437.485
CINEMA 3 11 Feb 18:47:10 18:50:27 20° 67° (ENE) 18:53:38 145.822/145.860
AIST 2 11 Feb 18:51:21 18:55:31 84° 303° (WNW) 18:59:43 435.215
O/OREOS (USA 219) 11 Feb 18:57:59 19:00:17 14° 262° (W) 19:02:35 437.305
STRAND 1 11 Feb 19:08:36 19:13:39 52° 100° (E) 19:18:40 437.568
CANX-2 11 Feb 19:14:15 19:18:18 47° 73° (ENE) 19:22:22 2200.000
CUTE-I 11 Feb 19:15:03 19:17:40 14° 271° (W) 19:20:17 437.470
BRITE-PL 11 Feb 19:16:11 19:20:48 25° 267° (W) 19:25:20 437.365/2234.400
GONETS M04 11 Feb 19:16:29 19:24:52 45° 74° (ENE) 19:33:13
PCSat 11 Feb 19:16:37 19:21:58 54° 56° (NE) 19:27:16 145.827
Cosmos 2499 11 Feb 19:17:00 19:22:45 20° 61° (ENE) 19:28:12 435.465 / 435.565
CUBESAT XI-V 11 Feb 19:20:40 19:23:34 16° 297° (WNW) 19:26:27 437.345
ISS 11 Feb 19:25:49 19:27:59 16° 11° (N) 19:30:09 145.825
FUNcube-1 11 Feb 19:37:39 19:38:43 11° 62° (ENE) 19:39:47 145.935
RS-15 11 Feb 19:40:33 19:52:37 63° 50° (NE) 20:04:50 29.354- 29.394
AO-85 11 Feb 19:41:20 19:45:56 35° 247° (WSW) 19:50:10 145.980
DOVE 4 11 Feb 19:42:53 19:47:38 40° 262° (W) 19:52:12 437.250
COMPASS 1 11 Feb 19:49:30 19:53:33 58° 75° (ENE) 19:57:41 437.405
PRISM 11 Feb 20:01:35 20:05:44 56° 101° (ESE) 20:09:48 437.425
CUTE 1.7 + AOD 2 11 Feb 20:04:30 20:08:36 51° 261° (W) 20:12:44 437.475
Oscar 11 11 Feb 20:04:32 20:08:16 29° 69° (ENE) 20:12:01 145.826/435.025
HO-68 11 Feb 20:04:48 20:11:51 60° 258° (WSW) 20:19:00 435.675
SEEDS 11 Feb 20:07:15 20:11:22 64° 259° (W) 20:15:34 437.485
UWE-3 11 Feb 20:13:04 20:17:02 39° 71° (ENE) 20:20:56 435.000/436.395/437.385
GOMX 1 11 Feb 20:14:32 20:16:52 13° 271° (W) 20:19:11 467.674
AAUSAT CUBESAT 2 11 Feb 20:16:09 20:20:17 85° 256° (WSW) 20:24:29 437.432
CUBEBUG 2 11 Feb 20:16:18 20:20:32 61° 75° (ENE) 20:24:42 437.445
CINEMA 3 11 Feb 20:23:01 20:27:22 40° 262° (W) 20:31:32 145.822/145.860
AIST 2 11 Feb 20:32:56 20:34:41 12° 322° (NW) 20:36:27 435.215
AIST 1 11 Feb 20:44:08 20:47:32 22° 73° (ENE) 20:50:53
STRAND 1 11 Feb 20:48:41 20:52:26 21° 297° (WNW) 20:56:11 437.568
CANX-2 11 Feb 20:52:05 20:54:26 14° 269° (W) 20:56:46 2200.000
PCSat 11 Feb 21:00:54 21:04:56 22° 254° (WSW) 21:08:58 145.827
ISS 11 Feb 21:01:51 21:05:01 49° 31° (NNE) 21:08:10 145.825
ZACube-1 11 Feb 21:02:14 21:06:26 82° 260° (W) 21:10:37 437.345
HUMSAT D 11 Feb 21:04:01 21:07:33 29° 70° (ENE) 21:11:05 437.325/437.525
Cosmos 2499 11 Feb 21:08:43 21:17:08 86° 264° (W) 21:24:51 435.465 / 435.565
FUNcube-1 11 Feb 21:10:15 21:14:25 69° 259° (WSW) 21:18:34 145.935
GONETS M04 11 Feb 21:13:34 21:21:32 41° 274° (W) 21:29:32
DELFI C3 11 Feb 21:14:07 21:18:05 85° 258° (WSW) 21:22:07 145.870
VELOX 1 11 Feb 21:23:58 21:25:17 11° 60° (ENE) 21:26:36 145.980
COMPASS 1 11 Feb 21:28:04 21:29:31 12° 270° (W) 21:30:58 437.405
UNISAT 6 11 Feb 21:31:07 21:33:15 13° 91° (E) 21:35:22 437.425
PRISM 11 Feb 21:38:32 21:40:34 13° 297° (WNW) 21:42:35 437.425
AISAT 11 Feb 21:39:15 21:42:09 17° 64° (ENE) 21:45:02 437.250
Oscar 11 11 Feb 21:40:53 21:44:23 24° 265° (W) 21:47:55 145.826/435.025
UKube-1 11 Feb 21:40:58 21:43:29 15° 63° (ENE) 21:46:01 .
UWE-3 11 Feb 21:50:52 21:53:40 17° 267° (W) 21:56:26 435.000/436.395/437.385
CUBEBUG 1 11 Feb 21:52:40 21:55:43 18° 65° (ENE) 21:58:46 437.445
RS-15 11 Feb 21:53:37 22:04:39 43° 252° (WSW) 22:15:48 29.354- 29.394
DX 1 11 Feb 21:55:29 21:59:04 25° 67° (ENE) 22:02:40 434.975-435.025
CUBEBUG 2 11 Feb 21:56:10 21:57:32 11° 270° (W) 21:58:54 437.445
ESTCUBE 1 11 Feb 22:08:02 22:12:08 35° 70° (ENE) 22:16:16 437.505/2401.250
ANTELSAT 11 Feb 22:14:30 22:18:36 39° 98° (E) 22:22:46 437.575/2403.000
TIGRISAT 11 Feb 22:20:36 22:24:45 43° 99° (E) 22:28:58 435.000
AIST 1 11 Feb 22:21:21 22:25:10 30° 270° (W) 22:28:56
50 SAT 11 Feb 22:36:24 22:40:05 77° 75° (ENE) 22:43:49 437.505
ISS 11 Feb 22:38:49 22:41:14 19° 227° (SW) 22:43:38 145.825
HUMSAT D 11 Feb 22:40:02 22:43:12 22° 266° (W) 22:46:24 437.325/437.525
POLYITAN 1 11 Feb 22:54:01 22:57:30 25° 95° (E) 23:00:58 437.675
QB50P2 11 Feb 22:54:30 22:58:04 26° 96° (E) 23:01:36 145.880/145.840
VELOX 1 11 Feb 22:56:39 23:01:07 79° 258° (WSW) 23:05:36 145.980
Cosmos 2499 11 Feb 23:04:21 23:08:47 16° 285° (WNW) 23:13:04 435.465 / 435.565
UNISAT 6 11 Feb 23:06:01 23:10:17 56° 287° (WNW) 23:14:38 437.425
AISAT 11 Feb 23:13:56 23:18:16 49° 260° (W) 23:22:36 437.250
UKube-1 11 Feb 23:14:53 23:19:07 52° 260° (W) 23:23:23 .
SPROUT 11 Feb 23:20:27 23:24:38 54° 74° (ENE) 23:28:50 437.525
TISAT 1 11 Feb 23:22:18 23:25:31 22° 67° (ENE) 23:28:46 437.305
POPSAT HIP 1 11 Feb 23:23:17 23:27:24 52° 100° (E) 23:31:30 437.405
NANOSAT C BR1 11 Feb 23:26:36 23:30:44 55° 100° (E) 23:34:51 145.865
DUCHIFAT 1 11 Feb 23:27:04 23:31:10 53° 100° (E) 23:35:15 145.980
PHONESAT 2.4 11 Feb 23:27:19 23:29:26 16° 151° (SSE) 23:31:33 2401.200-2431.200
CUBEBUG 1 11 Feb 23:27:27 23:31:41 44° 261° (W) 23:35:56 437.445
DX 1 11 Feb 23:31:17 23:35:08 30° 263° (W) 23:39:02 434.975-435.025
QB50P1 11 Feb 23:35:40 23:39:53 74° 103° (ESE) 23:44:04 145.935-145.965
ESTCUBE 1 11 Feb 23:45:27 23:49:01 22° 266° (W) 23:52:36 437.505/2401.250
ANTELSAT 11 Feb 23:51:55 23:55:04 20° 294° (WNW) 23:58:15 437.575/2403.000
TIGRISAT 11 Feb 23:58:13 00:01:09 18° 295° (WNW) 00:04:07 435.000
Cosmos 2491 12 Feb 00:08:49 00:13:20 15° 58° (ENE) 00:17:51 435.465 / 435.565
DANDE 12 Feb 00:16:40 00:20:44 15° 77° (ENE) 00:24:54 436.750
BUGSAT 1 12 Feb 00:19:26 00:23:28 72° 284° (WNW) 00:27:27 437.445
SWISSCUBE 12 Feb 00:24:10 00:27:52 23° 65° (ENE) 00:31:35 437.505
POLYITAN 1 12 Feb 00:29:42 00:33:17 27° 291° (WNW) 00:36:51 437.675
QB50P2 12 Feb 00:30:17 00:33:49 26° 292° (WNW) 00:37:20 145.880/145.840
BEESAT 3 12 Feb 00:31:43 00:34:53 22° 46° (NE) 00:38:02 437.485
TISAT 1 12 Feb 00:57:12 01:01:01 32° 263° (W) 01:04:50 437.305
SPROUT 12 Feb 00:58:54 01:00:56 13° 269° (W) 01:03:00 437.525
BEESAT 2 12 Feb 00:59:48 01:03:16 27° 48° (NE) 01:06:41 435.950
POPSAT HIP 1 12 Feb 01:00:30 01:02:46 14° 296° (WNW) 01:05:02 437.405
Oscar 19 12 Feb 01:00:35 01:05:07 31° 96° (E) 01:09:36 437.125/150
ITUPSAT 1 12 Feb 01:01:10 01:05:42 46° 71° (ENE) 01:10:17 437.325
CUSAT 1 12 Feb 01:02:40 01:10:22 52° 92° (E) 01:18:00 437.405
PHONESAT 2.4 12 Feb 01:03:04 01:06:17 50° 166° (SSE) 01:09:28 2401.200-2431.200
NANOSAT C BR1 12 Feb 01:03:56 01:06:01 14° 297° (WNW) 01:08:06 145.865
DUCHIFAT 1 12 Feb 01:04:16 01:06:26 14° 297° (WNW) 01:08:36 145.980
YUBILEINY 12 Feb 01:04:23 01:05:28 10° 71° (ENE) 01:06:34 435.215
BEESAT 12 Feb 01:08:02 01:12:40 55° 72° (ENE) 01:17:20 436.000
QB50P1 12 Feb 01:14:12 01:15:03 11° 299° (WNW) 01:15:56 145.935-145.965
JAS-2 12 Feb 01:24:28 01:29:33 36° 96° (E) 01:34:19 435.910
AIST 2 12 Feb 01:36:55 01:37:27 10° 36° (NE) 01:37:59 435.215
Gurwin Techsat 1B 12 Feb 01:49:28 01:54:18 34° 97° (E) 01:59:06 435.225
STARS 12 Feb 01:51:12 01:52:48 12° 61° (ENE) 01:54:23 437.465
DANDE 12 Feb 01:54:22 02:02:11 72° 95° (E) 02:10:39 436.750
SWISSCUBE 12 Feb 02:00:57 02:05:25 39° 262° (W) 02:09:55 437.505
Cosmos 2491 12 Feb 02:03:10 02:11:57 72° 80° (E) 02:20:42 435.465 / 435.565
BEESAT 3 12 Feb 02:09:06 02:12:45 36° 244° (WSW) 02:16:21 437.485
KKS-1 12 Feb 02:11:32 02:15:34 34° 69° (ENE) 02:19:35 437.445
ITAMSAT 1 12 Feb 02:14:21 02:18:57 30° 96° (E) 02:23:30 435.822/435.867
AO-7 12 Feb 02:17:32 02:20:42 12° 87° (E) 02:23:51 29.400- 29.500
MOZHAYETS 4 12 Feb 02:22:44 02:25:50 18° 64° (ENE) 02:28:57
BEESAT 2 12 Feb 02:37:40 02:41:07 28° 246° (WSW) 02:44:32 435.950
Oscar 19 12 Feb 02:39:53 02:44:24 32° 293° (WNW) 02:48:54 437.125/150
PHONESAT 2.4 12 Feb 02:40:09 02:43:26 72° 182° (S) 02:46:42 2401.200-2431.200
ITUPSAT 1 12 Feb 02:40:25 02:43:46 19° 267° (W) 02:47:10 437.325
CUSAT 1 12 Feb 02:45:29 02:52:51 37° 289° (WNW) 03:00:04 437.405
BEESAT 12 Feb 02:47:56 02:50:48 16° 269° (W) 02:53:40 436.000
YUBILEINY 12 Feb 02:51:42 03:00:18 62° 91° (E) 03:08:58 435.215
Cosmos 2504 12 Feb 03:02:26 03:06:48 15° 74° (ENE) 03:11:12 435.465 / 435.565
JAS-2 12 Feb 03:09:48 03:14:31 28° 296° (WNW) 03:18:57 435.910
AIST 2 12 Feb 03:12:38 03:16:46 66° 55° (NE) 03:20:51 435.215
SO-50 12 Feb 03:15:23 03:18:12 15° 108° (ESE) 03:21:03 436.795
STARS 12 Feb 03:24:11 03:28:34 73° 258° (WSW) 03:32:59 437.465
Gurwin Techsat 1B 12 Feb 03:29:32 03:34:10 31° 293° (WNW) 03:38:48 435.225
HORYU 2 12 Feb 03:31:02 03:33:01 13° 91° (E) 03:35:00 437.375
DANDE 12 Feb 03:39:06 03:45:53 29° 295° (WNW) 03:52:58 436.750
KKS-1 12 Feb 03:48:41 03:52:12 22° 266° (W) 03:55:42 437.445
ITAMSAT 1 12 Feb 03:53:42 03:58:24 35° 293° (WNW) 04:03:06 435.822/435.867
MOZHAYETS 4 12 Feb 03:58:16 04:02:39 47° 261° (W) 04:07:05
Cosmos 2491 12 Feb 04:01:22 04:07:52 24° 280° (W) 04:14:25 435.465 / 435.565
AO-7 12 Feb 04:06:31 04:14:52 71° 105° (ESE) 04:23:08 29.400- 29.500
PHONESAT 2.4 12 Feb 04:17:28 04:20:30 36° 200° (SSW) 04:23:32 2401.200-2431.200
M-CUBED/EXP-1 PRIME 12 Feb 04:31:11 04:34:35 57° 107° (ESE) 04:38:10 437.505
AUBIESAT-1 12 Feb 04:38:48 04:42:14 58° 106° (ESE) 04:45:53 437.475
CUBESAT XI-V 12 Feb 04:45:13 04:49:47 55° 73° (ENE) 04:54:25 437.345
Cosmos 2504 12 Feb 04:49:59 04:58:34 76° 94° (E) 05:07:28 435.465 / 435.565
YUBILEINY 12 Feb 04:50:14 04:57:40 30° 292° (WNW) 05:05:11 435.215
STRAND 1 12 Feb 04:50:53 04:51:25 10° 56° (ENE) 04:51:56 437.568
SO-50 12 Feb 04:53:14 04:58:08 69° 306° (NW) 05:03:05 436.795
AIST 2 12 Feb 04:53:16 04:54:42 12° 252° (WSW) 04:56:08 435.215
HORYU 2 12 Feb 05:05:35 05:09:58 60° 287° (WNW) 05:14:21 437.375
BRITE-PL 12 Feb 05:44:23 05:46:01 12° 87° (E) 05:47:36 437.365/2234.400
CUTE-I 12 Feb 05:49:00 05:53:40 29° 96° (E) 05:58:18 437.470
AO-7 12 Feb 06:00:13 06:06:57 29° 305° (NW) 06:13:39 29.400- 29.500
Cubesat XI-IV 12 Feb 06:03:16 06:08:19 39° 98° (E) 06:13:19 437.490
AUBIESAT-1 12 Feb 06:16:15 06:16:27 10° 301° (WNW) 06:16:38 437.475
STRAND 1 12 Feb 06:24:34 06:29:40 76° 74° (ENE) 06:34:49 437.568
CUBESAT XI-V 12 Feb 06:24:47 06:27:32 15° 270° (W) 06:30:17 437.345
GOMX 1 12 Feb 06:36:06 06:39:18 20° 92° (E) 06:42:23 467.674
SO-50 12 Feb 06:37:01 06:39:33 14° 325° (NW) 06:42:06 436.795
Cosmos 2504 12 Feb 06:46:02 06:52:53 25° 295° (WNW) 06:59:55 435.465 / 435.565
PRISM 12 Feb 06:51:11 06:55:07 41° 71° (ENE) 06:59:05 437.425
LilacSat-2 12 Feb 06:55:34 06:59:17 55° 286° (WNW) 07:03:00 437.200
BRITE-PL 12 Feb 07:20:27 07:25:06 64° 286° (WNW) 07:29:24 437.365/2234.400
CUTE-I 12 Feb 07:28:50 07:33:45 37° 292° (WNW) 07:38:38 437.470
O/OREOS (USA 219) 12 Feb 07:29:11 07:33:37 67° 110° (ESE) 07:38:06 437.305
HO-68 12 Feb 07:32:49 07:38:44 27° 94° (E) 07:44:36 435.675
DOVE 4 12 Feb 07:41:38 07:45:45 51° 99° (E) 07:49:46 437.250
Cubesat XI-IV 12 Feb 07:43:40 07:48:12 28° 295° (WNW) 07:52:43 437.490
CUTE 1.7 + AOD 2 12 Feb 07:49:31 07:53:08 26° 95° (E) 07:56:43 437.475
SEEDS 12 Feb 07:51:39 07:54:52 20° 93° (E) 07:58:04 437.485
Cosmos 2499 12 Feb 07:55:39 08:00:19 16° 75° (ENE) 08:05:00 435.465 / 435.565
AAUSAT CUBESAT 2 12 Feb 07:59:42 08:02:09 15° 91° (E) 08:04:35 437.432
STRAND 1 12 Feb 08:07:13 08:09:25 13° 271° (W) 08:11:37 437.568
CUBEBUG 2 12 Feb 08:08:44 08:10:18 12° 90° (E) 08:11:54 437.445
GOMX 1 12 Feb 08:13:35 08:17:33 34° 290° (WNW) 08:21:20 467.674
CINEMA 3 12 Feb 08:17:12 08:21:09 42° 99° (E) 08:25:08 145.822/145.860
GONETS M04 12 Feb 08:17:41 08:25:57 51° 89° (E) 08:34:15
AO-85 12 Feb 08:18:36 08:19:50 11° 104° (ESE) 08:21:05 145.980
PRISM 12 Feb 08:28:00 08:30:38 16° 267° (W) 08:33:18 437.425
UNISAT 6 12 Feb 08:31:08 08:33:01 13° 63° (ENE) 08:34:52 437.425
CANX-2 12 Feb 08:34:33 08:38:52 86° 288° (WNW) 08:43:11 2200.000
ZACube-1 12 Feb 08:51:03 08:54:00 18° 93° (E) 08:56:59 437.345
DELFI C3 12 Feb 08:53:46 08:55:32 12° 91° (E) 08:57:18 145.870
FUNcube-1 12 Feb 08:58:31 09:01:44 21° 94° (E) 09:05:00 145.935
COMPASS 1 12 Feb 09:07:34 09:11:48 75° 285° (WNW) 09:16:01 437.405
O/OREOS (USA 219) 12 Feb 09:11:03 09:13:31 14° 308° (NW) 09:15:59 437.305
ANTELSAT 12 Feb 09:13:45 09:17:39 35° 70° (ENE) 09:21:32 437.575/2403.000
AIST 1 12 Feb 09:15:14 09:17:16 13° 84° (E) 09:19:20
TIGRISAT 12 Feb 09:19:38 09:23:36 38° 71° (ENE) 09:27:33 435.000
HO-68 12 Feb 09:19:46 09:26:49 59° 291° (WNW) 09:33:50 435.675
DOVE 4 12 Feb 09:20:53 09:23:01 14° 297° (WNW) 09:25:08 437.250
CUTE 1.7 + AOD 2 12 Feb 09:25:16 09:28:55 28° 291° (WNW) 09:32:34 437.475
SEEDS 12 Feb 09:26:48 09:30:40 34° 289° (WNW) 09:34:31 437.485
Oscar 11 12 Feb 09:26:49 09:31:07 58° 100° (E) 09:35:24 145.826/435.025
